Denver Centennial, CO

3:30 PM MDT on July 20, 2017 (GMT -0600)
Centennial

Weather History for KAPA - May, 2013

Change the Weather History Date:

Sunday, May 12, 2013

  Actual Average Record
Temperature  
Mean Temperature 62 °F -  
Max Temperature 75 °F 66 °F 81 °F (2007)
Min Temperature 49 °F 39 °F 27 °F (1999)
Degree Days  
Heating Degree Days 3    
Month to date heating degree days 221  
Growing Degree Days 12 (Base 50)    
Moisture  
Dew Point 34 °F    
Average Humidity 38    
Maximum Humidity 56    
Minimum Humidity 20    
Precipitation  
Precipitation 0.00 in - - ()
Month to date precipitation 1.56  
Year to date precipitation 4.52  
Sea Level Pressure  
Sea Level Pressure 30.10 in    
Wind  
Wind Speed 9 mph (WSW)    
Max Wind Speed 15 mph    
Max Gust Speed 21 mph    
Visibility 10 miles    
Events      
Averages and records for this station are not official NWS values.
T = Trace of Precipitation, MM = Missing Value Source: NWS Daily Summary

Daily Weather History Graph

Daily Weather History Graph

Search for Another Location

Airport or City:

Trip Planner

Search our weather history database for the weather conditions in past years. The results will help you decide how hot, cold, wet, or windy it might be!

Date:

Astronomy

May. 12, 2013 Rise Set
Actual Time 5:47 AM MDT 8:04 PM MDT
Civil Twilight 5:17 AM MDT 8:34 PM MDT
Nautical Twilight 4:40 AM MDT 9:11 PM MDT
Astronomical Twilight 3:59 AM MDT 9:52 PM MDT
Moon 7:45 AM MDT (5/12) 10:33 PM MDT (5/12)
Length of Visible Light 15h 16m
Length of Day
14h 16m
Waxing Crescent, 7% of the Moon is Illuminated
May 12
Waxing Crescent
May 17
First Quarter
May 24
Full
May 31
Last Quarter
Jun 8
New

Hourly Weather History & Observations

Time (MDT) Temp. Dew Point Humidity Pressure Visibility Wind Dir Wind Speed Gust Speed Precip Events Conditions
12:53 AM 53.1 °F 35.1 °F 50% 30.15 in 10.0 mi SSW 11.5 mph - N/A   Scattered Clouds
1:53 AM 53.1 °F 34.0 °F 48% 30.15 in 10.0 mi WSW 11.5 mph - N/A   Mostly Cloudy
2:53 AM 51.1 °F 35.1 °F 54% 30.16 in 10.0 mi WSW 9.2 mph - N/A   Mostly Cloudy
3:53 AM 51.1 °F 34.0 °F 52% 30.15 in 10.0 mi West 5.8 mph - N/A   Mostly Cloudy
4:53 AM 52.0 °F 35.1 °F 53% 30.14 in 10.0 mi WSW 11.5 mph - N/A   Mostly Cloudy
5:53 AM 50.0 °F 35.1 °F 57% 30.15 in 10.0 mi WSW 11.5 mph - N/A   Scattered Clouds
6:53 AM 53.1 °F 36.0 °F 52% 30.16 in 10.0 mi WSW 10.4 mph - N/A   Scattered Clouds
7:53 AM 57.0 °F 36.0 °F 45% 30.16 in 10.0 mi WSW 11.5 mph - N/A   Scattered Clouds
8:53 AM 62.1 °F 36.0 °F 38% 30.15 in 10.0 mi WSW 9.2 mph - N/A   Scattered Clouds
9:53 AM 66.9 °F 33.1 °F 28% 30.14 in 10.0 mi NNW 8.1 mph - N/A   Scattered Clouds
10:53 AM 69.1 °F 32.0 °F 25% 30.13 in 10.0 mi North 8.1 mph 19.6 mph N/A   Partly Cloudy
11:53 AM 69.1 °F 30.9 °F 24% 30.12 in 10.0 mi Variable 3.5 mph - N/A   Partly Cloudy
12:53 PM 71.1 °F 32.0 °F 24% 30.10 in 10.0 mi Variable 3.5 mph 16.1 mph N/A   Partly Cloudy
1:53 PM 72.0 °F 30.9 °F 22% 30.08 in 10.0 mi WNW 4.6 mph 20.7 mph N/A   Partly Cloudy
2:53 PM 73.0 °F 32.0 °F 22% 30.08 in 10.0 mi Variable 3.5 mph - N/A   Scattered Clouds
3:53 PM 73.9 °F 33.1 °F 22% 30.05 in 10.0 mi Variable 5.8 mph - N/A   Scattered Clouds
4:53 PM 73.0 °F 30.9 °F 21% 30.04 in 10.0 mi NE 4.6 mph - N/A   Scattered Clouds
5:53 PM 72.0 °F 32.0 °F 23% 30.04 in 10.0 mi Calm Calm - N/A   Mostly Cloudy
6:53 PM 71.1 °F 35.1 °F 27% 30.03 in 10.0 mi East 3.5 mph - N/A   Mostly Cloudy
7:53 PM 68.0 °F 35.1 °F 30% 30.03 in 10.0 mi SE 5.8 mph - N/A   Mostly Cloudy
8:53 PM 61.0 °F 39.9 °F 46% 30.04 in 10.0 mi South 5.8 mph - N/A   Scattered Clouds
9:53 PM 60.1 °F 37.9 °F 44% 30.04 in 10.0 mi South 9.2 mph - N/A   Partly Cloudy
10:53 PM 60.1 °F 36.0 °F 41% 30.03 in 10.0 mi SSW 9.2 mph - N/A   Clear
11:53 PM 63.0 °F 34.0 °F 34% 30.01 in 10.0 mi SW 13.8 mph - N/A   Clear